OK2ARM-12 Weather Reports


Display with metric or nautical units.
time (UTC)temp
F
wind
direction
speed
MPH
gust
MPH
rain 1hr
in
rain 24hr
in
rain mn
in
humidity
%
barometer
mb
20260901105917 68 0.0 0.0 0.00 0.00 0.00 45 1021.6
20260901104918 67 0.0 0.0 0.00 0.00 0.00 46 1021.7
20260901103918 65 0.0 0.0 0.00 0.00 0.00 49 1021.9
20260901102918 64 0.0 0.0 0.00 0.00 0.00 50 1021.8
20260901101917 64 0.0 0.0 0.00 0.00 0.00 51 1021.7
20260901100917 65 0.0 0.0 0.00 0.00 0.00 50 1021.7
20260901095918 66 0.0 0.0 0.00 0.00 0.00 52 1021.6
20260901094918 65 0.0 0.0 0.00 0.00 0.00 55 1021.6
20260901092654 65 0.0 0.0 0.00 0.00 0.00 56 1021.5
20260901091654 65 0.0 0.0 0.00 0.00 0.00 58 1021.5
20260901084206 62 0.0 0.0 0.00 0.00 0.00 63 1021.3
20260901083205 62 0.0 0.0 0.00 0.00 0.00 63 1021.3
20260901082205 62 0.0 0.0 0.00 0.00 0.00 62 1021.3
20260901081206 62 0.0 0.0 0.00 0.00 0.00 63 1021.3
20260901080205 62 0.0 0.0 0.00 0.00 0.00 64 1021.3
20260901075206 62 0.0 0.0 0.00 0.00 0.00 64 1021.3
20260901074205 61 0.0 0.0 0.00 0.00 0.00 67 1021.1
20260901073206 60 0.0 0.0 0.00 0.00 0.00 67 1021.1
20260901072206 60 0.0 0.0 0.00 0.00 0.00 66 1020.9
20260901071206 61 0.0 0.0 0.00 0.00 0.00 67 1020.7
20260901070206 60 0.0 0.0 0.00 0.00 0.00 70 1020.7
20260901065205 60 0.0 0.0 0.00 0.00 0.00 70 1020.6
20260901064206 60 0.0 0.0 0.00 0.00 0.00 70 1020.7
20260901063205 59 0.0 0.0 0.00 0.00 0.00 72 1020.6
20260901062206 59 0.0 0.0 0.00 0.00 0.00 72 1020.5
20260901061206 58 0.0 0.0 0.00 0.00 0.00 72 1020.6
20260901060206 58 0.0 0.0 0.00 0.00 0.00 72 1020.6
20260901055206 58 0.0 0.0 0.00 0.00 0.00 73 1020.6
20260901054205 58 0.0 0.0 0.00 0.00 0.00 72 1020.5
20260901053205 57 0.0 0.0 0.00 0.00 0.00 73 1020.5
20260901052206 57 0.0 0.0 0.00 0.00 0.00 74 1020.3
20260901051206 56 0.0 0.0 0.00 0.00 0.00 75 1020.1
20260901050206 56 0.0 0.0 0.00 0.00 0.00 76 1020.1
20260901043942 56 0.0 0.0 0.00 0.00 0.00 77 1020.1
20260901042942 56 0.0 0.0 0.00 0.00 0.00 77 1020.1
20260901040718 56 0.0 0.0 0.00 0.00 0.00 77 1020.0
20260901035718 56 0.0 0.0 0.00 0.00 0.00 76 1020.0
20260901034718 56 0.0 0.0 0.00 0.00 0.00 75 1019.9
20260901033718 56 0.0 0.0 0.00 0.00 0.00 75 1019.9
20260901032718 56 0.0 0.0 0.00 0.00 0.00 74 1020.0
20260901031718 56 0.0 0.0 0.00 0.00 0.00 74 1019.9
20260901030718 56 0.0 0.0 0.00 0.00 0.00 74 1019.9
20260901025718 57 0.0 0.0 0.00 0.00 0.00 73 1019.8
20260901024718 57 0.0 0.0 0.00 0.00 0.00 72 1019.7
20260901022454 57 0.0 0.0 0.00 0.00 0.00 72 1019.8
20260901021453 58 0.0 0.0 0.00 0.00 0.00 71 1019.7
20260901020454 58 0.0 0.0 0.00 0.00 0.00 70 1019.6
20260901015454 58 0.0 0.0 0.00 0.00 0.00 69 1019.4
20260901014454 58 0.0 0.0 0.00 0.00 0.00 68 1019.3
20260901013454 59 0.0 0.0 0.00 0.00 0.00 68 1019.4
20260901012454 59 0.0 0.0 0.00 0.00 0.00 67 1019.4
20260901011454 59 0.0 0.0 0.00 0.00 0.00 67 1019.4
20260901010454 59 0.0 0.0 0.00 0.00 0.00 67 1019.2
20260901005454 59 0.0 0.0 0.00 0.00 0.00 66 1019.2
20260901004454 59 0.0 0.0 0.00 0.00 0.00 65 1019.1
20260901003454 60 0.0 0.0 0.00 0.00 0.00 64 1019.1
20260901002454 61 0.0 0.0 0.00 0.00 0.00 63 1019.2
20260831235006 62 0.0 0.0 0.00 0.00 0.00 60 1019.3
20260831234006 62 0.0 0.0 0.00 0.00 0.00 59 1019.3
20260831233006 63 0.0 0.0 0.00 0.00 0.00 58 1019.3
20260831232006 63 0.0 0.0 0.00 0.00 0.00 58 1019.4
20260831231006 63 0.0 0.0 0.00 0.00 0.00 58 1019.5
20260831230006 64 0.0 0.0 0.00 0.00 0.00 56 1019.6
20260831225006 64 0.0 0.0 0.00 0.00 0.00 56 1019.5
20260831224006 64 0.0 0.0 0.00 0.00 0.00 56 1019.6
20260831223006 64 0.0 0.0 0.00 0.00 0.00 56 1019.6
20260831222006 64 0.0 0.0 0.00 0.00 0.00 55 1019.6
20260831221006 65 0.0 0.0 0.00 0.00 0.00 54 1019.6
20260831220006 64 0.0 0.0 0.00 0.00 0.00 55 1019.6
20260831213743 65 0.0 0.0 0.00 0.00 0.00 54 1019.2
20260831211519 65 0.0 0.0 0.00 0.00 0.00 53 1019.1
20260831210519 65 0.0 0.0 0.00 0.00 0.00 52 1019.2
20260831205519 65 0.0 0.0 0.00 0.00 0.00 52 1019.1
20260831203256 65 0.0 0.0 0.00 0.00 0.00 52 1018.5
20260831202256 65 0.0 0.0 0.00 0.00 0.00 52 1018.2
20260831201256 65 0.0 0.0 0.00 0.00 0.00 53 1018.1
20260831195031 65 0.0 0.0 0.00 0.00 0.00 53 1017.9
20260831194031 65 0.0 0.0 0.00 0.00 0.00 53 1017.7
20260831193031 65 0.0 0.0 0.00 0.00 0.00 53 1017.6
20260831192032 65 0.0 0.0 0.00 0.00 0.00 52 1017.6
20260831191031 65 0.0 0.0 0.00 0.00 0.00 52 1017.6
20260831190031 65 0.0 0.0 0.00 0.00 0.00 52 1017.5
20260831185031 66 0.0 0.0 0.00 0.00 0.00 52 1017.5
20260831184031 66 0.0 0.0 0.00 0.00 0.00 52 1017.5
20260831183031 66 0.0 0.0 0.00 0.00 0.00 51 1017.5
20260831182031 67 0.0 0.0 0.00 0.00 0.00 51 1017.2
20260831181031 67 0.0 0.0 0.00 0.00 0.00 51 1017.0
20260831174809 67 0.0 0.0 0.00 0.00 0.00 49 1016.9
20260831173807 68 0.0 0.0 0.00 0.00 0.00 47 1016.8
20260831172808 69 0.0 0.0 0.00 0.00 0.00 45 1016.7
20260831171807 70 0.0 0.0 0.00 0.00 0.00 44 1016.6
20260831170807 70 0.0 0.0 0.00 0.00 0.00 43 1016.7
20260831165807 70 0.0 0.0 0.00 0.00 0.00 42 1016.7
20260831164807 71 0.0 0.0 0.00 0.00 0.00 42 1016.7
20260831163807 71 0.0 0.0 0.00 0.00 0.00 41 1016.6
20260831162807 71 0.0 0.0 0.00 0.00 0.00 40 1016.6
20260831161807 72 0.0 0.0 0.00 0.00 0.00 40 1016.7
20260831160807 72 0.0 0.0 0.00 0.00 0.00 40 1016.8
20260831155807 71 0.0 0.0 0.00 0.00 0.00 39 1016.9
20260831154807 72 0.0 0.0 0.00 0.00 0.00 40 1016.8
20260831152543 72 0.0 0.0 0.00 0.00 0.00 41 1016.9
20260831151543 72 0.0 0.0 0.00 0.00 0.00 39 1016.8
20260831150543 72 0.0 0.0 0.00 0.00 0.00 39 1016.9
20260831145543 72 0.0 0.0 0.00 0.00 0.00 42 1016.8
20260831144543 72 0.0 0.0 0.00 0.00 0.00 45 1016.8
20260831143543 72 0.0 0.0 0.00 0.00 0.00 43 1016.7
20260831142543 73 0.0 0.0 0.00 0.00 0.00 43 1016.8
20260831141547 72 0.0 0.0 0.00 0.00 0.00 47 1016.7
20260831140543 71 0.0 0.0 0.00 0.00 0.00 49 1016.7
20260831135543 71 0.0 0.0 0.00 0.00 0.00 49 1016.6
20260831133319 73 0.0 0.0 0.00 0.00 0.00 53 1016.7
20260831132319 72 0.0 0.0 0.00 0.00 0.00 53 1016.6
20260831131319 71 0.0 0.0 0.00 0.00 0.00 54 1016.7
20260831130319 73 0.0 0.0 0.00 0.00 0.00 52 1016.6
20260831125319 73 0.0 0.0 0.00 0.00 0.00 50 1016.7
20260831123056 72 0.0 0.0 0.00 0.00 0.00 52 1016.5
20260831122056 72 0.0 0.0 0.00 0.00 0.00 52 1016.6
20260831121055 71 0.0 0.0 0.00 0.00 0.00 53 1016.7
20260831120055 73 0.0 0.0 0.00 0.00 0.00 51 1016.6
20260831112608 72 0.0 0.0 0.00 0.00 0.00 55 1016.8
20260831111608 70 0.0 0.0 0.00 0.00 0.00 55 1016.9